owner,sensor,date,latitude,longitude,air_pressure(mBar),qcFlag 
LOOP,urn:ioos:station:wmo:lopl1:1,2018-01-01T00:27:00Z,28.8850,-90.0250,1023.1,11111222 
LOOP,urn:ioos:station:wmo:lopl1:1,2018-01-01T01:27:00Z,28.8850,-90.0250,1024.1,1111122 
LOOP,urn:ioos:station:wmo:lopl1:1,2018-01-01T02:27:00Z,28.8850,-90.0250,1025.1,1111122 
LOOP,urn:ioos:station:wmo:lopl1:1,2018-01-01T03:27:00Z,28.8850,-90.0250,1026.1,1111122 
LOOP,urn:ioos:station:wmo:lopl1:1,2018-01-01T04:27:00Z,28.8850,-90.0250,1026.1,1111122 
LOOP,urn:ioos:station:wmo:lopl1:1,2018-01-01T05:27:00Z,28.8850,-90.0250,1027.1,1111122 
LOOP,urn:ioos:station:wmo:lopl1:1,2018-01-01T06:27:00Z,28.8850,-90.0250,1027.1,1111122 
LOOP,urn:ioos:station:wmo:lopl1:1,2018-01-01T07:27:00Z,28.8850,-90.0250,1027.1,1111122 
LOOP,urn:ioos:station:wmo:lopl1:1,2018-01-01T08:27:00Z,28.8850,-90.0250,1028.1,1111122 
LOOP,urn:ioos:station:wmo:lopl1:1,2018-01-01T09:32:00Z,28.8850,-90.0250,1029.1,1111122 
LOOP,urn:ioos:station:wmo:lopl1:1,2018-01-01T10:32:00Z,28.8850,-90.0250,1029.1,1111122 
LOOP,urn:ioos:station:wmo:lopl1:1,2018-01-01T11:32:00Z,28.8850,-90.0250,1030.1,1111122 
LOOP,urn:ioos:station:wmo:lopl1:1,2018-01-01T12:32:00Z,28.8850,-90.0250,1031.1,1111122 
LOOP,urn:ioos:station:wmo:lopl1:1,2018-01-01T13:32:00Z,28.8850,-90.0250,1031.1,1111122 
LOOP,urn:ioos:station:wmo:lopl1:1,2018-01-01T14:32:00Z,28.8850,-90.0250,1032.1,1111122 
LOOP,urn:ioos:station:wmo:lopl1:1,2018-01-01T15:32:00Z,28.8850,-90.0250,1032.1,1111122 
LOOP,urn:ioos:station:wmo:lopl1:1,2018-01-01T16:32:00Z,28.8850,-90.0250,1033.1,1111122 
LOOP,urn:ioos:station:wmo:lopl1:1,2018-01-01T17:32:00Z,28.8850,-90.0250,1032.1,1111122 
LOOP,urn:ioos:station:wmo:lopl1:1,2018-01-01T18:32:00Z,28.8850,-90.0250,1031.1,1111122 
LOOP,urn:ioos:station:wmo:lopl1:1,2018-01-01T19:32:00Z,28.8850,-90.0250,1031.1,1111122 
LOOP,urn:ioos:station:wmo:lopl1:1,2018-01-01T20:32:00Z,28.8850,-90.0250,1030.1,1111122 
LOOP,urn:ioos:station:wmo:lopl1:1,2018-01-01T21:32:00Z,28.8850,-90.0250,1031.1,1111122 
LOOP,urn:ioos:station:wmo:lopl1:1,2018-01-01T22:32:00Z,28.8850,-90.0250,1031.1,1111122 
LOOP,urn:ioos:station:wmo:lopl1:1,2018-01-01T23:32:00Z,28.8850,-90.0250,1031.1,1111122 
LOOP,urn:ioos:station:wmo:lopl1:1,2018-01-02T00:32:00Z,28.8850,-90.0250,1032.1,1111122 
LOOP,urn:ioos:station:wmo:lopl1:1,2018-01-02T01:32:00Z,28.8850,-90.0250,1032.1,1111122 
LOOP,urn:ioos:station:wmo:lopl1:1,2018-01-02T02:32:00Z,28.8850,-90.0250,1032.1,1111122 
LOOP,urn:ioos:station:wmo:lopl1:1,2018-01-02T03:32:00Z,28.8850,-90.0250,1032.1,11111222 
LOOP,urn:ioos:station:wmo:lopl1:1,2018-01-02T04:32:00Z,28.8850,-90.0250,1033.1,1111122 
LOOP,urn:ioos:station:wmo:lopl1:1,2018-01-02T05:32:00Z,28.8850,-90.0250,1032.1,1111122 
LOOP,urn:ioos:station:wmo:lopl1:1,2018-01-02T06:32:00Z,28.8850,-90.0250,1032.1,1111122 
LOOP,urn:ioos:station:wmo:lopl1:1,2018-01-02T07:32:00Z,28.8850,-90.0250,1032.1,1111122 
LOOP,urn:ioos:station:wmo:lopl1:1,2018-01-02T08:32:00Z,28.8850,-90.0250,1031.1,1111122 
LOOP,urn:ioos:station:wmo:lopl1:1,2018-01-02T09:32:00Z,28.8850,-90.0250,1032.1,1111122 
LOOP,urn:ioos:station:wmo:lopl1:1,2018-01-02T10:32:00Z,28.8850,-90.0250,1032.1,1111122 
LOOP,urn:ioos:station:wmo:lopl1:1,2018-01-02T11:32:00Z,28.8850,-90.0250,1032.1,1111122 
LOOP,urn:ioos:station:wmo:lopl1:1,2018-01-02T12:32:00Z,28.8850,-90.0250,1032.1,1111122 
LOOP,urn:ioos:station:wmo:lopl1:1,2018-01-02T13:32:00Z,28.8850,-90.0250,1033.1,1111122 
LOOP,urn:ioos:station:wmo:lopl1:1,2018-01-02T14:32:00Z,28.8850,-90.0250,1033.1,1111122 
LOOP,urn:ioos:station:wmo:lopl1:1,2018-01-02T15:32:00Z,28.8850,-90.0250,1032.1,1111122 
LOOP,urn:ioos:station:wmo:lopl1:1,2018-01-02T16:32:00Z,28.8850,-90.0250,1032.1,1111122 
LOOP,urn:ioos:station:wmo:lopl1:1,2018-01-02T17:32:00Z,28.8850,-90.0250,1031.1,11111222 
LOOP,urn:ioos:station:wmo:lopl1:1,2018-01-02T18:32:00Z,28.8850,-90.0250,1030.1,11111222 
LOOP,urn:ioos:station:wmo:lopl1:1,2018-01-02T19:32:00Z,28.8850,-90.0250,1029.1,1111122 
LOOP,urn:ioos:station:wmo:lopl1:1,2018-01-02T20:32:00Z,28.8850,-90.0250,1029.1,1111122 
LOOP,urn:ioos:station:wmo:lopl1:1,2018-01-02T21:32:00Z,28.8850,-90.0250,1028.1,1111122 
LOOP,urn:ioos:station:wmo:lopl1:1,2018-01-02T22:32:00Z,28.8850,-90.0250,1027.1,1111122 
LOOP,urn:ioos:station:wmo:lopl1:1,2018-01-02T23:32:00Z,28.8850,-90.0250,1027.1,1111122 
LOOP,urn:ioos:station:wmo:lopl1:1,2018-01-03T00:32:00Z,28.8850,-90.0250,1028.1,1111122 
LOOP,urn:ioos:station:wmo:lopl1:1,2018-01-03T01:32:00Z,28.8850,-90.0250,1027.1,1111122 
LOOP,urn:ioos:station:wmo:lopl1:1,2018-01-03T02:32:00Z,28.8850,-90.0250,1027.1,11111222 
LOOP,urn:ioos:station:wmo:lopl1:1,2018-01-03T03:32:00Z,28.8850,-90.0250,1027.1,1111122 
LOOP,urn:ioos:station:wmo:lopl1:1,2018-01-03T04:32:00Z,28.8850,-90.0250,1026.1,1111122 
LOOP,urn:ioos:station:wmo:lopl1:1,2018-01-03T05:32:00Z,28.8850,-90.0250,1026.1,1111122 
LOOP,urn:ioos:station:wmo:lopl1:1,2018-01-03T06:37:00Z,28.8850,-90.0250,1025.1,1111122 
LOOP,urn:ioos:station:wmo:lopl1:1,2018-01-03T07:37:00Z,28.8850,-90.0250,1025.1,1111122 
LOOP,urn:ioos:station:wmo:lopl1:1,2018-01-03T08:37:00Z,28.8850,-90.0250,1025.1,1111122 
LOOP,urn:ioos:station:wmo:lopl1:1,2018-01-03T09:37:00Z,28.8850,-90.0250,1025.1,1111122 
LOOP,urn:ioos:station:wmo:lopl1:1,2018-01-03T10:37:00Z,28.8850,-90.0250,1024.1,1111122 
LOOP,urn:ioos:station:wmo:lopl1:1,2018-01-03T11:37:00Z,28.8850,-90.0250,1024.1,1111122 
LOOP,urn:ioos:station:wmo:lopl1:1,2018-01-03T12:37:00Z,28.8850,-90.0250,1025.1,1111122 
LOOP,urn:ioos:station:wmo:lopl1:1,2018-01-03T13:37:00Z,28.8850,-90.0250,1026.1,1111122 
LOOP,urn:ioos:station:wmo:lopl1:1,2018-01-03T14:37:00Z,28.8850,-90.0250,1026.1,1111122 
LOOP,urn:ioos:station:wmo:lopl1:1,2018-01-03T15:37:00Z,28.8850,-90.0250,1027.1,1111122 
LOOP,urn:ioos:station:wmo:lopl1:1,2018-01-03T16:37:00Z,28.8850,-90.0250,1026.1,1111122 
LOOP,urn:ioos:station:wmo:lopl1:1,2018-01-03T17:37:00Z,28.8850,-90.0250,1026.1,1111122 
LOOP,urn:ioos:station:wmo:lopl1:1,2018-01-03T18:37:00Z,28.8850,-90.0250,1024.1,1111122 
LOOP,urn:ioos:station:wmo:lopl1:1,2018-01-03T19:37:00Z,28.8850,-90.0250,1023.1,1111122 
LOOP,urn:ioos:station:wmo:lopl1:1,2018-01-03T20:37:00Z,28.8850,-90.0250,1023.1,1111122 
LOOP,urn:ioos:station:wmo:lopl1:1,2018-01-03T21:37:00Z,28.8850,-90.0250,1023.1,1111122 
LOOP,urn:ioos:station:wmo:lopl1:1,2018-01-03T22:37:00Z,28.8850,-90.0250,1023.1,1111122 
LOOP,urn:ioos:station:wmo:lopl1:1,2018-01-03T23:37:00Z,28.8850,-90.0250,1023.1,1111122 
LOOP,urn:ioos:station:wmo:lopl1:1,2018-01-04T00:37:00Z,28.8850,-90.0250,1024.1,1111122 
LOOP,urn:ioos:station:wmo:lopl1:1,2018-01-04T01:37:00Z,28.8850,-90.0250,1024.1,1111122 
LOOP,urn:ioos:station:wmo:lopl1:1,2018-01-04T02:37:00Z,28.8850,-90.0250,1024.1,1111122 
LOOP,urn:ioos:station:wmo:lopl1:1,2018-01-04T03:37:00Z,28.8850,-90.0250,1025.1,1111122 
LOOP,urn:ioos:station:wmo:lopl1:1,2018-01-04T04:37:00Z,28.8850,-90.0250,1025.1,1111122 
LOOP,urn:ioos:station:wmo:lopl1:1,2018-01-04T05:37:00Z,28.8850,-90.0250,1025.1,11111222 
LOOP,urn:ioos:station:wmo:lopl1:1,2018-01-04T06:37:00Z,28.8850,-90.0250,1025.1,11111222 
LOOP,urn:ioos:station:wmo:lopl1:1,2018-01-04T07:37:00Z,28.8850,-90.0250,1025.1,1111122 
LOOP,urn:ioos:station:wmo:lopl1:1,2018-01-04T08:37:00Z,28.8850,-90.0250,1025.1,1111122 
LOOP,urn:ioos:station:wmo:lopl1:1,2018-01-04T09:37:00Z,28.8850,-90.0250,1025.1,1111122 
LOOP,urn:ioos:station:wmo:lopl1:1,2018-01-04T10:37:00Z,28.8850,-90.0250,1025.1,1111122 
LOOP,urn:ioos:station:wmo:lopl1:1,2018-01-04T11:37:00Z,28.8850,-90.0250,1026.1,1111122 
LOOP,urn:ioos:station:wmo:lopl1:1,2018-01-04T12:37:00Z,28.8850,-90.0250,1026.1,1111122 
LOOP,urn:ioos:station:wmo:lopl1:1,2018-01-04T13:37:00Z,28.8850,-90.0250,1027.1,1111122 
LOOP,urn:ioos:station:wmo:lopl1:1,2018-01-04T14:37:00Z,28.8850,-90.0250,1027.1,1111122 
LOOP,urn:ioos:station:wmo:lopl1:1,2018-01-04T15:37:00Z,28.8850,-90.0250,1028.1,1111122 
LOOP,urn:ioos:station:wmo:lopl1:1,2018-01-04T16:37:00Z,28.8850,-90.0250,1028.1,1111122 
LOOP,urn:ioos:station:wmo:lopl1:1,2018-01-04T17:37:00Z,28.8850,-90.0250,1027.1,1111122 
LOOP,urn:ioos:station:wmo:lopl1:1,2018-01-04T18:37:00Z,28.8850,-90.0250,1027.1,1111122 
LOOP,urn:ioos:station:wmo:lopl1:1,2018-01-04T19:37:00Z,28.8850,-90.0250,1026.1,1111122 
LOOP,urn:ioos:station:wmo:lopl1:1,2018-01-04T20:37:00Z,28.8850,-90.0250,1025.1,1111122 
LOOP,urn:ioos:station:wmo:lopl1:1,2018-01-04T21:37:00Z,28.8850,-90.0250,1025.1,1111122 
LOOP,urn:ioos:station:wmo:lopl1:1,2018-01-04T22:42:00Z,28.8850,-90.0250,1026.1,1111122 
LOOP,urn:ioos:station:wmo:lopl1:1,2018-01-04T23:42:00Z,28.8850,-90.0250,1026.1,1111122 
LOOP,urn:ioos:station:wmo:lopl1:1,2018-01-05T00:42:00Z,28.8850,-90.0250,1026.1,1111122 
LOOP,urn:ioos:station:wmo:lopl1:1,2018-01-05T01:42:00Z,28.8850,-90.0250,1027.1,1111122 
LOOP,urn:ioos:station:wmo:lopl1:1,2018-01-05T02:42:00Z,28.8850,-90.0250,1027.1,1111122 
LOOP,urn:ioos:station:wmo:lopl1:1,2018-01-05T03:42:00Z,28.8850,-90.0250,1027.1,1111122 
LOOP,urn:ioos:station:wmo:lopl1:1,2018-01-05T04:42:00Z,28.8850,-90.0250,1027.1,1111122 
LOOP,urn:ioos:station:wmo:lopl1:1,2018-01-05T05:42:00Z,28.8850,-90.0250,1027.1,1111122 
LOOP,urn:ioos:station:wmo:lopl1:1,2018-01-05T06:42:00Z,28.8850,-90.0250,1027.1,1111122 
LOOP,urn:ioos:station:wmo:lopl1:1,2018-01-05T07:42:00Z,28.8850,-90.0250,1027.1,1111122 
LOOP,urn:ioos:station:wmo:lopl1:1,2018-01-05T08:42:00Z,28.8850,-90.0250,1028.1,1111122 
LOOP,urn:ioos:station:wmo:lopl1:1,2018-01-05T09:42:00Z,28.8850,-90.0250,1028.1,1111122 
LOOP,urn:ioos:station:wmo:lopl1:1,2018-01-05T10:42:00Z,28.8850,-90.0250,1028.1,1111122 
LOOP,urn:ioos:station:wmo:lopl1:1,2018-01-05T11:42:00Z,28.8850,-90.0250,1028.1,1111122 
LOOP,urn:ioos:station:wmo:lopl1:1,2018-01-05T12:42:00Z,28.8850,-90.0250,1029.1,1111122 
LOOP,urn:ioos:station:wmo:lopl1:1,2018-01-05T13:42:00Z,28.8850,-90.0250,1030.1,1111122 
LOOP,urn:ioos:station:wmo:lopl1:1,2018-01-05T14:42:00Z,28.8850,-90.0250,1030.1,11111222 
LOOP,urn:ioos:station:wmo:lopl1:1,2018-01-05T15:42:00Z,28.8850,-90.0250,1031.1,1111122 
LOOP,urn:ioos:station:wmo:lopl1:1,2018-01-05T16:42:00Z,28.8850,-90.0250,1031.1,1111122 
LOOP,urn:ioos:station:wmo:lopl1:1,2018-01-05T17:42:00Z,28.8850,-90.0250,1029.1,1111122 
LOOP,urn:ioos:station:wmo:lopl1:1,2018-01-05T18:42:00Z,28.8850,-90.0250,1029.1,1111122 
LOOP,urn:ioos:station:wmo:lopl1:1,2018-01-05T19:42:00Z,28.8850,-90.0250,1028.1,1111122 
LOOP,urn:ioos:station:wmo:lopl1:1,2018-01-05T20:42:00Z,28.8850,-90.0250,1028.1,1111122 
LOOP,urn:ioos:station:wmo:lopl1:1,2018-01-05T21:42:00Z,28.8850,-90.0250,1028.1,1111122 
LOOP,urn:ioos:station:wmo:lopl1:1,2018-01-05T22:42:00Z,28.8850,-90.0250,1028.1,1111122 
LOOP,urn:ioos:station:wmo:lopl1:1,2018-01-05T23:42:00Z,28.8850,-90.0250,1028.1,1111122 
LOOP,urn:ioos:station:wmo:lopl1:1,2018-01-06T00:42:00Z,28.8850,-90.0250,1028.1,1111122 
LOOP,urn:ioos:station:wmo:lopl1:1,2018-01-06T01:42:00Z,28.8850,-90.0250,1028.1,11111222 
LOOP,urn:ioos:station:wmo:lopl1:1,2018-01-06T02:42:00Z,28.8850,-90.0250,1028.1,1111122 
LOOP,urn:ioos:station:wmo:lopl1:1,2018-01-06T03:42:00Z,28.8850,-90.0250,1028.1,1111122 
LOOP,urn:ioos:station:wmo:lopl1:1,2018-01-06T04:42:00Z,28.8850,-90.0250,1029.1,1111122 
LOOP,urn:ioos:station:wmo:lopl1:1,2018-01-06T05:42:00Z,28.8850,-90.0250,1029.1,1111122 
LOOP,urn:ioos:station:wmo:lopl1:1,2018-01-06T06:42:00Z,28.8850,-90.0250,1028.1,1111122 
LOOP,urn:ioos:station:wmo:lopl1:1,2018-01-06T07:43:00Z,28.8850,-90.0250,1028.1,1111122 
LOOP,urn:ioos:station:wmo:lopl1:1,2018-01-06T08:43:00Z,28.8850,-90.0250,1027.1,1111122 
LOOP,urn:ioos:station:wmo:lopl1:1,2018-01-06T09:43:00Z,28.8850,-90.0250,1028.1,1111122 
LOOP,urn:ioos:station:wmo:lopl1:1,2018-01-06T10:43:00Z,28.8850,-90.0250,1028.1,1111122 
LOOP,urn:ioos:station:wmo:lopl1:1,2018-01-06T11:48:00Z,28.8850,-90.0250,1028.1,1111122 
LOOP,urn:ioos:station:wmo:lopl1:1,2018-01-06T12:48:00Z,28.8850,-90.0250,1028.1,1111122 
LOOP,urn:ioos:station:wmo:lopl1:1,2018-01-06T13:48:00Z,28.8850,-90.0250,1029.1,1111122 
LOOP,urn:ioos:station:wmo:lopl1:1,2018-01-06T14:48:00Z,28.8850,-90.0250,1029.1,1111122 
LOOP,urn:ioos:station:wmo:lopl1:1,2018-01-06T15:48:00Z,28.8850,-90.0250,1030.1,1111122 
LOOP,urn:ioos:station:wmo:lopl1:1,2018-01-06T16:48:00Z,28.8850,-90.0250,1029.1,1111122 
LOOP,urn:ioos:station:wmo:lopl1:1,2018-01-06T17:48:00Z,28.8850,-90.0250,1029.1,1111122 
LOOP,urn:ioos:station:wmo:lopl1:1,2018-01-06T18:48:00Z,28.8850,-90.0250,1028.1,1111122 
LOOP,urn:ioos:station:wmo:lopl1:1,2018-01-06T19:48:00Z,28.8850,-90.0250,1027.1,1111122 
LOOP,urn:ioos:station:wmo:lopl1:1,2018-01-06T20:48:00Z,28.8850,-90.0250,1027.1,1111122 
LOOP,urn:ioos:station:wmo:lopl1:1,2018-01-06T21:48:00Z,28.8850,-90.0250,1027.1,1111122 
LOOP,urn:ioos:station:wmo:lopl1:1,2018-01-06T22:48:00Z,28.8850,-90.0250,1027.1,1111122 
LOOP,urn:ioos:station:wmo:lopl1:1,2018-01-06T23:48:00Z,28.8850,-90.0250,1027.1,1111122 
LOOP,urn:ioos:station:wmo:lopl1:1,2018-01-07T00:48:00Z,28.8850,-90.0250,1027.1,1111122 
LOOP,urn:ioos:station:wmo:lopl1:1,2018-01-07T01:48:00Z,28.8850,-90.0250,1027.1,1111122 
LOOP,urn:ioos:station:wmo:lopl1:1,2018-01-07T02:48:00Z,28.8850,-90.0250,1027.1,1111122 
LOOP,urn:ioos:station:wmo:lopl1:1,2018-01-07T03:48:00Z,28.8850,-90.0250,1028.1,1111122 
LOOP,urn:ioos:station:wmo:lopl1:1,2018-01-07T04:48:00Z,28.8850,-90.0250,1027.1,1111122 
LOOP,urn:ioos:station:wmo:lopl1:1,2018-01-07T05:48:00Z,28.8850,-90.0250,1027.1,1111122 
LOOP,urn:ioos:station:wmo:lopl1:1,2018-01-07T06:48:00Z,28.8850,-90.0250,1026.1,1111122 
LOOP,urn:ioos:station:wmo:lopl1:1,2018-01-07T07:48:00Z,28.8850,-90.0250,1026.1,1111122 
LOOP,urn:ioos:station:wmo:lopl1:1,2018-01-07T08:48:00Z,28.8850,-90.0250,1025.1,1111122 
LOOP,urn:ioos:station:wmo:lopl1:1,2018-01-07T09:48:00Z,28.8850,-90.0250,1025.1,1111122 
LOOP,urn:ioos:station:wmo:lopl1:1,2018-01-07T10:48:00Z,28.8850,-90.0250,1025.1,1111122 
LOOP,urn:ioos:station:wmo:lopl1:1,2018-01-07T11:48:00Z,28.8850,-90.0250,1025.1,1111122 
LOOP,urn:ioos:station:wmo:lopl1:1,2018-01-07T12:48:00Z,28.8850,-90.0250,1025.1,1111122 
LOOP,urn:ioos:station:wmo:lopl1:1,2018-01-07T13:48:00Z,28.8850,-90.0250,1025.1,1111122 
LOOP,urn:ioos:station:wmo:lopl1:1,2018-01-07T14:48:00Z,28.8850,-90.0250,1025.1,1111122 
LOOP,urn:ioos:station:wmo:lopl1:1,2018-01-07T15:48:00Z,28.8850,-90.0250,1025.1,1111122 
LOOP,urn:ioos:station:wmo:lopl1:1,2018-01-07T16:48:00Z,28.8850,-90.0250,1025.1,1111122 
LOOP,urn:ioos:station:wmo:lopl1:1,2018-01-07T17:48:00Z,28.8850,-90.0250,1024.1,1111122 
LOOP,urn:ioos:station:wmo:lopl1:1,2018-01-07T18:48:00Z,28.8850,-90.0250,1023.1,1111122 
LOOP,urn:ioos:station:wmo:lopl1:1,2018-01-07T19:48:00Z,28.8850,-90.0250,1021.1,1111122 
LOOP,urn:ioos:station:wmo:lopl1:1,2018-01-07T20:48:00Z,28.8850,-90.0250,1020.1,1111122 
LOOP,urn:ioos:station:wmo:lopl1:1,2018-01-07T21:48:00Z,28.8850,-90.0250,1020.1,11111222 
LOOP,urn:ioos:station:wmo:lopl1:1,2018-01-07T22:48:00Z,28.8850,-90.0250,1020.1,1111122 
LOOP,urn:ioos:station:wmo:lopl1:1,2018-01-07T23:48:00Z,28.8850,-90.0250,1020.1,1111122 
LOOP,urn:ioos:station:wmo:lopl1:1,2018-01-08T00:53:00Z,28.8850,-90.0250,1019.1,1111122 
LOOP,urn:ioos:station:wmo:lopl1:1,2018-01-08T01:53:00Z,28.8850,-90.0250,1019.1,1111122 
LOOP,urn:ioos:station:wmo:lopl1:1,2018-01-08T02:53:00Z,28.8850,-90.0250,1018.1,1111122 
LOOP,urn:ioos:station:wmo:lopl1:1,2018-01-08T03:53:00Z,28.8850,-90.0250,1017.1,1111122 
LOOP,urn:ioos:station:wmo:lopl1:1,2018-01-08T04:58:00Z,28.8850,-90.0250,1016.1,1111122 
LOOP,urn:ioos:station:wmo:lopl1:1,2018-01-08T05:58:00Z,28.8850,-90.0250,1015.1,1111122 
LOOP,urn:ioos:station:wmo:lopl1:1,2018-01-08T06:58:00Z,28.8850,-90.0250,1014.1,1111122 
LOOP,urn:ioos:station:wmo:lopl1:1,2018-01-08T07:58:00Z,28.8850,-90.0250,1014.1,1111122 
LOOP,urn:ioos:station:wmo:lopl1:1,2018-01-08T08:58:00Z,28.8850,-90.0250,1014.1,1111122 
LOOP,urn:ioos:station:wmo:lopl1:1,2018-01-08T09:58:00Z,28.8850,-90.0250,1014.1,1111122 
LOOP,urn:ioos:station:wmo:lopl1:1,2018-01-08T10:58:00Z,28.8850,-90.0250,1013.1,1111122 
LOOP,urn:ioos:station:wmo:lopl1:1,2018-01-08T11:58:00Z,28.8850,-90.0250,1013.1,1111122 
LOOP,urn:ioos:station:wmo:lopl1:1,2018-01-08T12:58:00Z,28.8850,-90.0250,1012.1,1111122 
LOOP,urn:ioos:station:wmo:lopl1:1,2018-01-08T13:58:00Z,28.8850,-90.0250,1013.1,1111122 
LOOP,urn:ioos:station:wmo:lopl1:1,2018-01-08T14:58:00Z,28.8850,-90.0250,1014.1,1111122 
LOOP,urn:ioos:station:wmo:lopl1:1,2018-01-08T15:58:00Z,28.8850,-90.0250,1014.1,1111122 
LOOP,urn:ioos:station:wmo:lopl1:1,2018-01-08T16:58:00Z,28.8850,-90.0250,1013.1,1111122 
LOOP,urn:ioos:station:wmo:lopl1:1,2018-01-08T17:58:00Z,28.8850,-90.0250,1012.1,1111122 
LOOP,urn:ioos:station:wmo:lopl1:1,2018-01-08T18:58:00Z,28.8850,-90.0250,1012.1,1111122 
LOOP,urn:ioos:station:wmo:lopl1:1,2018-01-08T19:58:00Z,28.8850,-90.0250,1012.1,1111122 
LOOP,urn:ioos:station:wmo:lopl1:1,2018-01-08T20:58:00Z,28.8850,-90.0250,1011.1,1111122 
LOOP,urn:ioos:station:wmo:lopl1:1,2018-01-08T21:58:00Z,28.8850,-90.0250,1012.1,1111122 
LOOP,urn:ioos:station:wmo:lopl1:1,2018-01-08T22:58:00Z,28.8850,-90.0250,1012.1,1111122 
LOOP,urn:ioos:station:wmo:lopl1:1,2018-01-08T23:58:00Z,28.8850,-90.0250,1013.1,1111122 
LOOP,urn:ioos:station:wmo:lopl1:1,2018-01-09T00:58:00Z,28.8850,-90.0250,1013.1,1111122 
LOOP,urn:ioos:station:wmo:lopl1:1,2018-01-09T01:58:00Z,28.8850,-90.0250,1014.1,1111122 
LOOP,urn:ioos:station:wmo:lopl1:1,2018-01-09T02:58:00Z,28.8850,-90.0250,1014.1,1111122 
LOOP,urn:ioos:station:wmo:lopl1:1,2018-01-09T03:58:00Z,28.8850,-90.0250,1015.1,1111122 
LOOP,urn:ioos:station:wmo:lopl1:1,2018-01-09T04:58:00Z,28.8850,-90.0250,1015.1,1111122 
LOOP,urn:ioos:station:wmo:lopl1:1,2018-01-09T05:58:00Z,28.8850,-90.0250,1015.1,1111122 
LOOP,urn:ioos:station:wmo:lopl1:1,2018-01-09T06:58:00Z,28.8850,-90.0250,1014.1,1111122 
LOOP,urn:ioos:station:wmo:lopl1:1,2018-01-09T07:58:00Z,28.8850,-90.0250,1014.1,1111122 
LOOP,urn:ioos:station:wmo:lopl1:1,2018-01-09T08:58:00Z,28.8850,-90.0250,1014.1,1111122 
LOOP,urn:ioos:station:wmo:lopl1:1,2018-01-09T09:58:00Z,28.8850,-90.0250,1014.1,1111122 
LOOP,urn:ioos:station:wmo:lopl1:1,2018-01-09T10:58:00Z,28.8850,-90.0250,1015.1,1111122 
LOOP,urn:ioos:station:wmo:lopl1:1,2018-01-09T11:58:00Z,28.8850,-90.0250,1016.1,1111122 
LOOP,urn:ioos:station:wmo:lopl1:1,2018-01-09T12:58:00Z,28.8850,-90.0250,1016.1,1111122 
LOOP,urn:ioos:station:wmo:lopl1:1,2018-01-09T13:58:00Z,28.8850,-90.0250,1016.1,1111122 
LOOP,urn:ioos:station:wmo:lopl1:1,2018-01-09T14:58:00Z,28.8850,-90.0250,1017.1,1111122 
LOOP,urn:ioos:station:wmo:lopl1:1,2018-01-09T15:58:00Z,28.8850,-90.0250,1017.1,1111122 
LOOP,urn:ioos:station:wmo:lopl1:1,2018-01-09T16:58:00Z,28.8850,-90.0250,1017.1,1111122 
LOOP,urn:ioos:station:wmo:lopl1:1,2018-01-09T17:58:00Z,28.8850,-90.0250,1016.1,1111122 
LOOP,urn:ioos:station:wmo:lopl1:1,2018-01-09T18:58:00Z,28.8850,-90.0250,1015.1,1111122 
LOOP,urn:ioos:station:wmo:lopl1:1,2018-01-09T19:58:00Z,28.8850,-90.0250,1015.1,1111122 
LOOP,urn:ioos:station:wmo:lopl1:1,2018-01-09T20:58:00Z,28.8850,-90.0250,1015.1,1111122 
LOOP,urn:ioos:station:wmo:lopl1:1,2018-01-09T21:58:00Z,28.8850,-90.0250,1015.1,1111122 
LOOP,urn:ioos:station:wmo:lopl1:1,2018-01-09T22:58:00Z,28.8850,-90.0250,1015.1,1111122 
LOOP,urn:ioos:station:wmo:lopl1:1,2018-01-09T23:58:00Z,28.8850,-90.0250,1016.1,1111122 
LOOP,urn:ioos:station:wmo:lopl1:1,2018-01-10T00:58:00Z,28.8850,-90.0250,1016.1,1111122 
LOOP,urn:ioos:station:wmo:lopl1:1,2018-01-10T01:58:00Z,28.8850,-90.0250,1016.1,1111122 
LOOP,urn:ioos:station:wmo:lopl1:1,2018-01-10T02:58:00Z,28.8850,-90.0250,1016.1,1111122 
LOOP,urn:ioos:station:wmo:lopl1:1,2018-01-10T03:58:00Z,28.8850,-90.0250,1015.1,1111122 
LOOP,urn:ioos:station:wmo:lopl1:1,2018-01-10T04:58:00Z,28.8850,-90.0250,1015.1,1111122 
LOOP,urn:ioos:station:wmo:lopl1:1,2018-01-10T05:58:00Z,28.8850,-90.0250,1015.1,1111122 
LOOP,urn:ioos:station:wmo:lopl1:1,2018-01-10T06:58:00Z,28.8850,-90.0250,1015.1,1111122 
LOOP,urn:ioos:station:wmo:lopl1:1,2018-01-10T07:58:00Z,28.8850,-90.0250,1014.1,11111222 
LOOP,urn:ioos:station:wmo:lopl1:1,2018-01-10T08:58:00Z,28.8850,-90.0250,1014.1,1111122 
LOOP,urn:ioos:station:wmo:lopl1:1,2018-01-10T09:58:00Z,28.8850,-90.0250,1014.1,1111122 
LOOP,urn:ioos:station:wmo:lopl1:1,2018-01-10T10:58:00Z,28.8850,-90.0250,1014.1,1111122 
LOOP,urn:ioos:station:wmo:lopl1:1,2018-01-10T11:58:00Z,28.8850,-90.0250,1014.1,1111122 
LOOP,urn:ioos:station:wmo:lopl1:1,2018-01-10T12:58:00Z,28.8850,-90.0250,1015.1,1111122 
LOOP,urn:ioos:station:wmo:lopl1:1,2018-01-10T13:58:00Z,28.8850,-90.0250,1015.1,1111122 
LOOP,urn:ioos:station:wmo:lopl1:1,2018-01-10T14:58:00Z,28.8850,-90.0250,1015.1,1111122 
LOOP,urn:ioos:station:wmo:lopl1:1,2018-01-10T15:58:00Z,28.8850,-90.0250,1016.1,1111122 
LOOP,urn:ioos:station:wmo:lopl1:1,2018-01-10T17:03:00Z,28.8850,-90.0250,1015.1,1111122 
LOOP,urn:ioos:station:wmo:lopl1:1,2018-01-10T18:03:00Z,28.8850,-90.0250,1014.1,1111122 
LOOP,urn:ioos:station:wmo:lopl1:1,2018-01-10T19:03:00Z,28.8850,-90.0250,1013.1,1111122 
LOOP,urn:ioos:station:wmo:lopl1:1,2018-01-10T20:03:00Z,28.8850,-90.0250,1013.1,1111122 
LOOP,urn:ioos:station:wmo:lopl1:1,2018-01-10T21:03:00Z,28.8850,-90.0250,1012.1,1111122 
LOOP,urn:ioos:station:wmo:lopl1:1,2018-01-10T22:03:00Z,28.8850,-90.0250,1012.1,1111122 
LOOP,urn:ioos:station:wmo:lopl1:1,2018-01-10T23:03:00Z,28.8850,-90.0250,1013.1,1111122 
LOOP,urn:ioos:station:wmo:lopl1:1,2018-01-11T00:03:00Z,28.8850,-90.0250,1013.1,1111122 
LOOP,urn:ioos:station:wmo:lopl1:1,2018-01-11T01:03:00Z,28.8850,-90.0250,1012.1,1111122 
LOOP,urn:ioos:station:wmo:lopl1:1,2018-01-11T02:03:00Z,28.8850,-90.0250,1012.1,1111122 
LOOP,urn:ioos:station:wmo:lopl1:1,2018-01-11T03:03:00Z,28.8850,-90.0250,1012.1,1111122 
LOOP,urn:ioos:station:wmo:lopl1:1,2018-01-11T04:03:00Z,28.8850,-90.0250,1011.1,1111122 
LOOP,urn:ioos:station:wmo:lopl1:1,2018-01-11T05:03:00Z,28.8850,-90.0250,1011.1,1111122 
LOOP,urn:ioos:station:wmo:lopl1:1,2018-01-11T06:03:00Z,28.8850,-90.0250,1011.1,1111122 
LOOP,urn:ioos:station:wmo:lopl1:1,2018-01-11T07:03:00Z,28.8850,-90.0250,1010.1,1111122 
LOOP,urn:ioos:station:wmo:lopl1:1,2018-01-11T08:03:00Z,28.8850,-90.0250,1010.1,1111122 
LOOP,urn:ioos:station:wmo:lopl1:1,2018-01-11T09:03:00Z,28.8850,-90.0250,1010.1,1111122 
LOOP,urn:ioos:station:wmo:lopl1:1,2018-01-11T10:03:00Z,28.8850,-90.0250,1010.1,1111122 
LOOP,urn:ioos:station:wmo:lopl1:1,2018-01-11T11:03:00Z,28.8850,-90.0250,1010.1,1111122 
LOOP,urn:ioos:station:wmo:lopl1:1,2018-01-11T12:03:00Z,28.8850,-90.0250,1010.1,1111122 
LOOP,urn:ioos:station:wmo:lopl1:1,2018-01-11T13:03:00Z,28.8850,-90.0250,1010.1,1111122 
LOOP,urn:ioos:station:wmo:lopl1:1,2018-01-11T14:03:00Z,28.8850,-90.0250,1011.1,1111122 
LOOP,urn:ioos:station:wmo:lopl1:1,2018-01-11T15:03:00Z,28.8850,-90.0250,1011.1,1111122 
LOOP,urn:ioos:station:wmo:lopl1:1,2018-01-11T16:03:00Z,28.8850,-90.0250,1012.1,1111122 
LOOP,urn:ioos:station:wmo:lopl1:1,2018-01-11T17:03:00Z,28.8850,-90.0250,1011.1,1111122 
LOOP,urn:ioos:station:wmo:lopl1:1,2018-01-11T18:03:00Z,28.8850,-90.0250,1011.1,1111122 
LOOP,urn:ioos:station:wmo:lopl1:1,2018-01-11T19:03:00Z,28.8850,-90.0250,1010.1,1111122 
LOOP,urn:ioos:station:wmo:lopl1:1,2018-01-11T20:03:00Z,28.8850,-90.0250,1009.1,1111122 
LOOP,urn:ioos:station:wmo:lopl1:1,2018-01-11T21:03:00Z,28.8850,-90.0250,1009.1,1111122 
LOOP,urn:ioos:station:wmo:lopl1:1,2018-01-11T22:03:00Z,28.8850,-90.0250,1009.1,1111122 
LOOP,urn:ioos:station:wmo:lopl1:1,2018-01-11T23:03:00Z,28.8850,-90.0250,1009.1,1111122 
LOOP,urn:ioos:station:wmo:lopl1:1,2018-01-12T00:08:00Z,28.8850,-90.0250,1009.1,1111122 
LOOP,urn:ioos:station:wmo:lopl1:1,2018-01-12T01:08:00Z,28.8850,-90.0250,1010.1,1111122 
LOOP,urn:ioos:station:wmo:lopl1:1,2018-01-12T02:08:00Z,28.8850,-90.0250,1010.1,1111122 
LOOP,urn:ioos:station:wmo:lopl1:1,2018-01-12T03:08:00Z,28.8850,-90.0250,1009.1,1111122 
LOOP,urn:ioos:station:wmo:lopl1:1,2018-01-12T04:08:00Z,28.8850,-90.0250,1009.1,1111122 
LOOP,urn:ioos:station:wmo:lopl1:1,2018-01-12T05:08:00Z,28.8850,-90.0250,1009.1,1111122 
LOOP,urn:ioos:station:wmo:lopl1:1,2018-01-12T06:08:00Z,28.8850,-90.0250,1009.1,1111122 
LOOP,urn:ioos:station:wmo:lopl1:1,2018-01-12T07:08:00Z,28.8850,-90.0250,1008.1,1111122 